| Station | Date | Time | Temp (°F) | RH (%) | Dew Pt (°F) | Wind Spd (mph) | Wind Dir (°) | Wind Gust (mph) | Latest Rain (In) | Daily Rain (In) | Daily Max Temp (°F) | Daily Min Temp (°F) |
|---|---|---|---|---|---|---|---|---|---|---|---|---|
| Dollarhide 17B Remote | 5/3/26 | 2300 | 52.4 0.2 | 86 6 | 48.4 1.5 | - | - | - | - | - | 69.6 4.6 | 48.1 0.1 |
| Dollarhide 18A Remote | 5/3/26 | 2300 | 51.9 1.2 | 84 3 | 47.2 2.0 | - | - | - | - | - | 67.2 5.7 | 50.3 5.1 |
| Dollarhide 1AS Remote | 5/3/26 | 2300 | 52.5 0.8 | 84 4 | 47.6 1.9 | 2.4 0.9 | SSW | 202 | 4.4 1.8 | - | - | 68.4 5.4 | 50.6 2.8 |
| Angwin | 5/3/26 | 2300 | 46.2 6.0 | 94 24 | 44.6 1.8 | 2.2 1.2 | W | 266 | 7.1 5.3 | 0.00 | 0.00 | 57.4 5.8 | 45.2 1.3 |
| Lower Angwin (Pioneer) | 5/3/26 | 2300 | 48.2 0.0 | - | - | 3.0 0.7 | WSW | 254 | 7.0 2.2 | - | - | 60.4 4.8 | 46.4 0.6 |
| Lower Chiles Valley (Brown) | 5/3/26 | 2300 | 50.4 0.6 | 85 4 | 46.2 1.8 | 2.6 0.6 | WSW | 247 | 7.4 1.8 | 0.00 | 0.00 | 65.0 4.4 | 49.5 0.4 |
| Deer Park | 5/3/26 | 2300 | 52.8 0.2 | 80 5 | 46.9 1.4 | 4.3 1.8 | NW | 308 | 7.9 2.6 | 0.00 | 0.00 | 66.1 3.1 | 50.9 0.5 |
| Moss Creek Vineyard/Reservior | 5/3/26 | 2215 | 52.7 0.4 | 81 3 | 47.0 0.5 | - | - | - | 0.00 | 0.00 | 68.9 2.3 | 49.4 2.5 |
| Montesol | 5/3/26 | 2300 | 48.8 1.6 | - | - | - | - | - | 0.00 | 0.00 | 60.4 10.9 | 44.8 1.6 |
| Dollarhide Base | 5/3/26 | 2300 | 52.5 0.9 | 84 4 | 47.8 2.0 | 1.9 1.3 | SSW | 192 | 4.0 1.0 | 0.00 | 0.00 | 69.3 4.6 | 50.3 0.4 |
| Pope Valley (Weeks Lake) | 5/3/26 | 2300 | 52.6 0.6 | 80 7 | 46.7 1.6 | 2.2 0.2 | NNW | 329 | 5.7 0.7 | 0.00 | 0.00 | 67.5 4.9 | 45.8 0.1 |
| Max | 52.8 | 94 | 48.4 | 4.3 | - | 7.9 | 0.00 | 0.00 | 69.6 | 50.9 | ||
| Avg | 51.0 | 84 | 46.9 | 2.7 | - | 6.2 | 0.00 | - | - | - | ||
| Min | 46.2 | 80 | 44.6 | 1.9 | - | 4.0 | 0.00 | 0.00 | 57.4 | 44.8 |
| Station | Date | Time | Temp (°F) | RH (%) | Dew Pt (°F) | Wind Spd (mph) | Wind Dir (°) | Wind Gust (mph) | Latest Rain (In) | Daily Rain (In) | Daily Max Temp (°F) | Daily Min Temp (°F) |
|---|---|---|---|---|---|---|---|---|---|---|---|---|
| Calistoga-North | 5/3/26 | 2300 | 55.3 | 79 | 49.0 | - | - | - | 0.00 | 0.00 | 83.7 | 45.5 |
| Stags Leap Dist (Chimney Rock) | 5/3/26 | 2300 | 52.6 0.2 | 85 0 | 48.3 0.2 | 2.3 2.5 | NNW | 335 | 6.5 2.1 | 0.00 | 0.00 | 68.3 1.7 | 51.6 0.9 |
| Diamond Mtn (McEachran) | 5/3/26 | 2300 | 53.8 1.0 | 77 6 | 47.0 1.0 | - | - | - | - | - | 64.5 4.3 | 51.2 0.0 |
| Diamond Mtn (Schramsberg) | 5/3/26 | 2300 | 51.8 0.0 | 83 5 | 46.7 1.7 | - | - | - | 0.00 | 0.00 | 65.0 3.6 | 49.8 0.5 |
| Stags Leap Dist (Silverado Vineyards) | 5/3/26 | 2300 | 51.3 0.6 | 83 2 | 46.4 0.1 | 0.8 3.4 | ENE | 61 | 2.5 4.5 | 0.00 | 0.00 | 68.0 2.3 | 51.2 0.5 |
| Oak Knoll-East (Ranch 53) | 5/3/26 | 2300 | 50.3 1.9 | 85 1 | 45.9 2.1 | 0.0 3.5 | N | 0 | 0.0 6.2 | 0.00 | 0.00 | 68.8 2.5 | 49.8 2.0 |
| Rutherford-North (Mee Ln) | 5/3/26 | 2300 | 51.2 1.5 | 86 1 | 47.1 1.0 | 0.5 1.8 | NNE | 14 | 2.6 1.3 | 0.00 | 0.00 | 69.7 0.9 | 50.9 0.7 |
| Frisinger Napa-NW | 5/3/26 | 2300 | 50.5 0.3 | 85 4 | 46.1 1.4 | 2.4 1.1 | WNW | 283 | 3.4 0.3 | 0.00 | 0.00 | 68.2 1.4 | 50.5 1.0 |
| Napa-North (Ranch 29) | 5/3/26 | 2300 | 52.4 0.0 | 84 1 | 47.8 0.2 | 0.7 0.6 | E | 81 | 1.5 0.4 | 0.00 | 0.00 | 66.6 1.0 | 52.1 0.1 |
| St. Helena (NVV Office) | 5/3/26 | 2300 | 55.2 0.1 | - | - | 1.8 0.5 | WSW | 252 | 6.3 2.6 | 0.00 | 0.00 | 69.5 2.3 | 53.5 0.3 |
| Crossroads Ranch | 5/3/26 | 2300 | 50.9 1.7 | 84 0 | 46.2 1.6 | 0.2 2.0 | N | 0 | 2.0 2.0 | 0.00 | 0.00 | 67.8 0.4 | 50.9 1.5 |
| Oakville | 5/3/26 | 2300 | 51.2 1.4 | 85 2 | 46.7 0.8 | 0.0 2.3 | NNW | 348 | 0.7 4.3 | 0.00 | 0.00 | 68.3 1.3 | 50.8 1.4 |
| OV561-East | 5/3/26 | 2300 | 53.2 0.6 | - | - | - | - | - | - | - | 69.4 0.2 | 52.9 0.8 |
| OV518-West | 5/3/26 | 2300 | 54.2 1.5 | - | - | - | - | - | - | - | 67.5 0.6 | 52.7 0.2 |
| Napa-NW (Ranch 54) | 5/3/26 | 2300 | 51.2 1.1 | 83 2 | 46.3 1.7 | 0.4 0.1 | WNW | 303 | 1.6 0.0 | 0.00 | 0.00 | 69.8 0.3 | 50.9 0.4 |
| Calistoga (Ranch 78) | 5/3/26 | 2300 | 55.2 0.8 | 73 4 | 46.8 0.7 | 3.9 1.9 | NW | 309 | 6.9 3.2 | 0.00 | 0.00 | 67.8 6.0 | 52.8 0.3 |
| Yountville-SE (Ranch 85) | 5/3/26 | 2300 | 51.5 1.3 | 87 3 | 47.7 0.2 | 0.8 2.8 | SW | 225 | 1.9 3.9 | 0.00 | 0.00 | 69.8 3.3 | 51.2 1.5 |
| Yountville-South (Ranch 87) | 5/3/26 | 2300 | 50.9 1.4 | 88 2 | 47.4 0.8 | 0.6 1.7 | S | 190 | 2.1 3.4 | 0.00 | 0.00 | 69.3 1.5 | 50.7 1.5 |
| Rutherford Hill Estate | 5/3/26 | 2300 | 53.0 0.8 | 79 6 | 46.5 1.2 | 2.1 1.6 | NW | 311 | 4.6 2.2 | 0.00 | 0.00 | 69.2 1.0 | 51.3 0.0 |
| Rutherford (STS) | 5/3/26 | 2300 | 50.2 2.8 | 90 1 | 47.3 2.4 | 1.4 0.0 | ENE | 76 | 2.9 0.8 | 0.00 | 0.00 | 69.8 0.8 | 49.8 2.3 |
| Borreo (Soda Canyon) | 5/3/26 | 2300 | 47.7 0.2 | 91 1 | 45.1 0.5 | 1.6 0.7 | NNW | 347 | 3.0 0.1 | 0.00 | 0.00 | 66.2 2.7 | 47.4 0.2 |
| Oakville-NE (Ranch 88) | 5/3/26 | 2300 | 50.4 1.9 | 82 0 | 45.2 1.7 | 0.0 0.3 | N | 0 | 0.0 3.0 | 0.00 | 0.00 | 70.4 1.0 | 50.2 1.8 |
| Soda Canyon | 5/3/26 | 2300 | 46.8 5.2 | 89 5 | 43.7 3.5 | 0.8 0.9 | NNE | 14 | 2.3 1.9 | 0.00 | 0.00 | 67.7 3.0 | 46.6 5.3 |
| Silver Oak OV | 5/3/26 | 2300 | 50.8 1.7 | 86 1 | 46.7 1.4 | 0.2 2.1 | NNE | 20 | 1.2 3.2 | 0.00 | 0.00 | 68.4 1.1 | 50.3 1.9 |
| Tiara Fria (East St. Helena) | 5/3/26 | 2300 | 55.7 1.3 | 72 7 | 47.0 1.1 | 4.9 2.5 | W | 260 | 9.4 3.8 | 0.00 | 0.00 | 67.9 0.8 | 53.3 0.2 |
| To Kalon Remote (TKKE) | 5/3/26 | 2300 | 51.6 1.7 | - | - | - | - | - | - | - | 69.8 0.6 | 50.7 2.2 |
| To Kalon | 5/3/26 | 2300 | 54.5 2.3 | 77 11 | 47.3 1.3 | 2.8 0.3 | W | 277 | 5.9 1.2 | 0.00 | 0.00 | 68.9 1.0 | 52.4 0.3 |
| To Kalon Remote (TKN5) | 5/3/26 | 2300 | 55.0 1.9 | - | - | - | - | - | - | - | 69.3 1.7 | 53.0 0.6 |
| St. Helena-North | 5/3/26 | 2300 | 55.3 0.6 | 69 5 | 45.4 1.1 | 2.9 1.5 | NW | 314 | 7.7 3.1 | 0.00 | 0.00 | 67.9 3.2 | 53.3 0.4 |
| Twomey Calistoga | 5/3/26 | 2300 | 54.5 0.0 | 77 4 | 47.3 1.3 | 1.9 0.2 | NW | 315 | 6.1 0.5 | 0.00 | 0.00 | 66.7 5.2 | 53.0 0.4 |
| Wappo Hill Floor | 5/3/26 | 2300 | 54.0 1.4 | 78 4 | 47.3 0.1 | 3.3 0.2 | NW | 323 | 6.7 1.1 | 0.00 | 0.00 | 69.2 1.9 | 52.2 0.3 |
| Yountville (Ranch 67) | 5/3/26 | 2300 | 53.2 1.2 | 76 5 | 45.9 0.4 | 1.6 1.8 | N | 349 | 7.0 1.2 | 0.00 | 0.00 | 68.0 1.6 | 51.8 0.1 |
| Max | 55.7 | 91 | 49.0 | 4.9 | - | 9.4 | 0.00 | 0.00 | 83.7 | 53.5 | ||
| Avg | 52.3 | 82 | 46.7 | 1.5 | - | 3.8 | 0.00 | - | - | - | ||
| Min | 46.8 | 69 | 43.7 | 0.0 | - | 0.0 | 0.00 | 0.00 | 64.5 | 45.5 |
| Station | Date | Time | Temp (°F) | RH (%) | Dew Pt (°F) | Wind Spd (mph) | Wind Dir (°) | Wind Gust (mph) | Latest Rain (In) | Daily Rain (In) | Daily Max Temp (°F) | Daily Min Temp (°F) |
|---|---|---|---|---|---|---|---|---|---|---|---|---|
| Carneros (Milton Rd) | 5/3/26 | 2300 | 50.2 1.6 | 90 6 | 47.5 0.3 | - | - | - | 0.00 | 0.00 | 67.3 1.8 | 49.7 2.0 |
| Carneros Lower (Ranch 81) | 5/3/26 | 2300 | 50.8 0.8 | 87 1 | 47.1 0.6 | 0.0 1.1 | N | 0 | 0.0 4.3 | 0.00 | 0.00 | 69.4 1.0 | 50.8 0.8 |
| Carneros Upper (Ranch 81) | 5/3/26 | 2300 | 51.4 0.1 | 86 1 | 47.2 0.1 | 5.0 2.7 | W | 277 | 6.8 4.5 | - | - | 64.8 0.6 | 51.4 0.0 |
| Carneros (Mitsuko) | 5/3/26 | 2300 | 50.8 0.8 | - | - | - | - | - | - | - | 66.5 0.5 | 47.4 4.0 |
| Mount George (Napa East) | 5/3/26 | 2300 | 59.4 2.0 | 94 8 | 57.8 4.5 | 0.1 1.4 | E | 92 | 1.5 2.8 | 0.00 | 0.00 | 69.8 4.9 | 58.5 2.2 |
| Napa-East (Palmaz 300') | 5/3/26 | 2300 | 50.0 2.1 | 91 8 | 47.6 0.4 | 1.8 0.8 | ESE | 108 | 2.8 3.4 | 0.00 | 0.00 | 67.5 2.5 | 49.8 2.0 |
| Napa-East (Palmaz 1200') | 5/3/26 | 2300 | 47.0 1.4 | 89 13 | 43.6 2.3 | 0.1 0.7 | WSW | 238 | 1.3 1.9 | - | - | 62.0 2.9 | 46.9 1.4 |
| Napa-East (Palmaz 1400') | 5/3/26 | 2300 | 47.6 0.4 | 98 2 | 47.2 0.1 | 0.7 1.7 | WSW | 256 | 3.4 3.9 | 0.00 | 0.00 | 61.9 2.8 | 47.0 0.1 |
| Dealy Lane (Ranch 80) | 5/3/26 | 2300 | 52.2 0.5 | 82 2 | 47.0 0.1 | 1.3 0.1 | WSW | 244 | 4.0 0.7 | 0.00 | 0.00 | 67.1 1.0 | 52.2 0.5 |
| Suscol Mtn (Ranch 93) | 5/3/26 | 2300 | 50.2 1.3 | 89 3 | 47.1 0.6 | 8.9 1.4 | NNW | 327 | 13.4 0.9 | 0.00 | 0.00 | 67.8 3.2 | 49.2 0.7 |
| Carneros (Saintsbury) | 5/3/26 | 2300 | 51.8 0.4 | 84 0 | 47.2 0.4 | 3.3 0.5 | WSW | 249 | 6.1 1.2 | 0.00 | 0.00 | 66.4 0.6 | 51.6 0.9 |
| Sugarloaf West | 5/3/26 | 2300 | 53.4 0.3 | 83 0 | 48.3 0.2 | 1.3 1.3 | SSW | 210 | 4.6 1.7 | 0.00 | 0.00 | 65.7 1.8 | 53.4 0.7 |
| Suscol Upper (Ranch 92) | 5/3/26 | 2300 | 50.3 0.6 | 91 1 | 47.8 1.0 | 0.1 6.3 | W | 277 | 2.4 8.6 | 0.00 | 0.00 | 64.6 3.0 | 50.0 0.7 |
| Stanly (Ranch 45) | 5/3/26 | 2300 | 52.2 0.4 | 85 2 | 47.9 1.0 | 2.6 1.1 | W | 260 | 5.7 0.4 | 0.00 | 0.00 | 67.9 2.5 | 52.1 0.2 |
| Suscol Lower (Ranch 35) | 5/3/26 | 2300 | 50.9 1.2 | 86 3 | 47.0 0.2 | 1.4 3.0 | SW | 219 | 4.7 2.3 | 0.00 | 0.00 | 67.2 3.2 | 50.9 0.6 |
| Napa-South (Toyon Farms) | 5/3/26 | 2300 | 52.2 0.5 | 89 0 | 49.2 0.3 | 0.1 0.0 | WSW | 254 | 1.7 0.3 | 0.00 | 0.00 | 66.6 1.6 | 52.2 0.5 |
| Toyon Remote 1 | 5/3/26 | 2300 | 46.2 4.4 | - | - | - | - | - | - | - | 69.2 1.5 | 45.8 4.3 |
| Toyon Remote 2 | 5/3/26 | 2300 | 52.3 0.1 | - | - | - | - | - | - | - | 67.2 1.2 | 52.1 0.2 |
| Toyon Remote 3 | 5/3/26 | 2300 | 50.6 0.8 | - | - | - | - | - | - | - | 69.6 0.8 | 50.3 1.0 |
| Napa-West Lower (Truchard) | 5/3/26 | 2300 | 51.8 1.2 | 82 2 | 46.6 0.4 | - | - | - | - | - | 69.0 1.1 | 51.0 0.9 |
| Napa-West Upper (Truchard) | 5/3/26 | 2300 | 51.8 0.7 | 84 4 | 47.3 0.4 | 1.0 0.5 | SW | 229 | 2.7 1.2 | 0.00 | 0.00 | 67.4 1.9 | 51.4 0.5 |
| Mt. Veeder | 5/3/26 | 2300 | 47.6 1.0 | 88 6 | 44.3 2.7 | 0.7 0.4 | W | 269 | 2.6 1.4 | 0.00 | 0.00 | 61.0 0.9 | 47.0 0.8 |
| Wooden Valley | 5/3/26 | 2300 | 52.2 1.6 | 78 6 | 45.6 0.4 | 3.0 1.8 | WNW | 303 | 5.6 4.5 | 0.00 | 0.00 | 65.7 2.7 | 49.8 0.2 |
| Max | 59.4 | 98 | 57.8 | 8.9 | - | 13.4 | 0.00 | 0.00 | 69.8 | 58.5 | ||
| Avg | 51.0 | 87 | 47.5 | 1.8 | - | 4.1 | 0.00 | - | - | - | ||
| Min | 46.2 | 78 | 43.6 | 0.0 | - | 0.0 | 0.00 | 0.00 | 61.0 | 45.8 |